Regional Weather Roundup
Issued by NWS

Home | Current Version | Previous Version | Text Only | Print | Product List | Glossary Off
Versions: 1 2 3 4 5 6 7 8 9 10 11 12 13 14 15 16 17 18 19 20 21 22 23 24 25 26 27 28 29 30 31 32 33 34 35 36 37 38 39 40 41 42 43 44 45 46 47 48 49 50

000
ASUS43 KDMX 271601
RWRIA

WEATHER ROUNDUP FOR IOWA
NATIONAL WEATHER SERVICE DES MOINES IA
1100 AM CDT THU JUL 27 2017

NOTE: "FAIR" INDICATES FEW OR NO CLOUDS BELOW 12,000 FEET WITH NO
SIGNIFICANT WEATHER AND/OR OBSTRUCTIONS TO VISIBILITY.

* - THESE STATIONS ARE NOT NWS STATIONS...THUS NOT UNDER NWS
QUALITY CONTROL.  THEY ALSO DO NOT REPORT WEATHER SUCH
AS PRECIPITATION OR FOG.

IAZ001>003-012>014-020>022-031>034-043>046-271700-
   NORTHWEST IOWA

CITY           SKY/WX    TMP DP  RH WIND       PRES   REMARKS
CARROLL *      SUNNY     77  66  69 NE10      30.07R
CHEROKEE *     SUNNY     78  65  64 NE8       30.10S HX  80
DENISON *      SUNNY     77  64  65 NE8G16    30.10R
ORANGE CITY *  SUNNY     77  66  69 NE5       30.11S
SHELDON *      SUNNY     77  64  65 NE7G14    30.10S
SIOUX CITY     MOSUNNY   80  64  58 E10       30.09S HX  82
SPENCER        SUNNY     80  62  54 N8        30.10S HX  81
STORM LAKE *   SUNNY     75  64  69 VRB6      30.10S
$$

IAZ055>058-069>071-079>083-090>094-271700-
   SOUTHWEST IOWA

CITY           SKY/WX    TMP DP  RH WIND       PRES   REMARKS
ATLANTIC *     SUNNY     77  66  69 N10       30.05S
AUDUBON *      SUNNY     77  66  69 NE8       30.08R
CLARINDA *     MOSUNNY   79  72  78 E8        30.05F HX  82
COUNCIL BLFS * SUNNY     77  68  73 NE9       30.07R
CRESTON *      PTSUNNY   79  70  73 N9        30.05S HX  81
HARLAN  *      MOSUNNY   77  66  69 NE10      30.10S
LAMONI         PTSUNNY   80  71  74 NE8       30.02R HX  84
RED OAK *      SUNNY     79  68  69 NE10      30.05S HX  81
SHENANDOAH *   MOSUNNY   79  70  73 N8        30.04F HX  81
$$

IAZ047>049-059>061-072>074-084-271700-
   CENTRAL IOWA

CITY           SKY/WX    TMP DP  RH WIND       PRES   REMARKS
AMES           SUNNY     80  67  64 NE10      30.03S HX  82
ANKENY *       SUNNY     79  66  65 NE12      30.03S HX  81
BOONE *        SUNNY     79  64  61 NE10      30.04S HX  81
CHARITON *     MOSUNNY   81  70  69 NE9       30.00F HX  84
DES MOINES     MOSUNNY   80  68  66 NE10      30.01S HX  83
GRINNELL*      SUNNY     79  68  69 NE9       30.03S HX  81
KNOXVILLE *    PTSUNNY   79  70  73 N9        30.00S HX  81
MARSHALLTOWN   SUNNY     80  66  62 NE13      30.02S HX  82
NEWTON *       SUNNY     79  66  65 NE12      30.02S HX  81
PELLA *        PTSUNNY   81  69  66 NE6       30.02S HX  83
PERRY *          N/A     78  67  69 NE8       30.04S HX  80
$$

IAZ004>006-015-016-023>025-035-036-271700-
   NORTH CENTRAL IOWA

CITY           SKY/WX    TMP DP  RH WIND       PRES   REMARKS
ALGONA *       SUNNY     79  66  65 NE8       30.08S HX  81
ESTHERVILLE    SUNNY     77  65  66 NE9       30.09F
FORT DODGE *   SUNNY     77  64  65 N7        30.08R
MASON CITY     SUNNY     78  66  66 NE7       30.08S HX  80
FOREST CITY *    N/A     77  64  65 NE6       30.08S
WEBSTER CITY * SUNNY     79  64  61 NE10G16   30.04S HX  81
IOWA FALLS *     N/A     80  64  59 NE8       30.06S HX  81
$$

IAZ007>011-017>019-026>030-037>042-050>054-066-271700-
   NORTHEAST IOWA

CITY           SKY/WX    TMP DP  RH WIND       PRES   REMARKS
CHARLES CITY * SUNNY     77  63  61 NE9       30.06S
DECORAH *      SUNNY     77  64  65 VRB7      30.05R
DUBUQUE        MOSUNNY   77  69  76 N9        30.01S
MONTICELLO *   MOSUNNY   79  70  73 NE8       29.99F HX  81
OELWEIN *      SUNNY     77  68  73 NE10      30.04S
WATERLOO       SUNNY     79  63  57 NE13      30.02S HX  80
$$

IAZ064-065-067-068-078-271700-
   EAST CENTRAL IOWA

CITY           SKY/WX    TMP DP  RH WIND       PRES   REMARKS
DAVENPORT      CLOUDY    76  70  82 NE5       30.00S
IOWA CITY      PTSUNNY   81  71  71 NE10      30.00S HX  85
MUSCATINE *    CLOUDY    77  70  78 NE10      29.98S
QUAD CITIES    CLOUDY    77  70  79 N7        29.97S
$$

IAZ062-063-075>077-085>089-095>099-271700-
   SOUTHEAST IOWA

CITY           SKY/WX    TMP DP  RH WIND       PRES   REMARKS
BURLINGTON     CLOUDY    77  73  87 NE10      29.97R
FAIRFIELD *    PTSUNNY   79  70  73 NE13      29.98S HX  81
FORT MADISON * CLOUDY    77  73  88 NE7       29.97S
KEOKUK *       CLOUDY    79  75  89 VRB5      29.95S HX  82
OSKALOOSA *      N/A     81  70  70 NE7       30.00S HX  84
OTTUMWA        PTSUNNY   80  70  71 NE10      29.99S HX  83
WASHINGTON *   PTSUNNY   79  72  78 E9        30.00S HX  82
$$

ABBREVIATIONS USED IN REMARKS
   TC - TEMPERATURES IN CELSIUS
  WCI - WIND CHILL INDEX
   HX - HEAT INDEX
  VSB - VISIBILITY
$$





USA.gov is the U.S. government's official web portal to all federal, state and local government web resources and services.